Location: Mannheim
(49.4880°N, 8.4650°E)
Time: 21:57:39
(UTC+02:00)

ISS - Pass Details

Date: 20 March 2023
Orbit: 413 x 421 km, 51.6° (Epoch: 30 March)

Event Time Altitude Azimuth Distance (km) Brightness Sun altitude
Rises 21:50:01 0° 279° (W) 2,356 0.9 -29.4°
Reaches altitude 10° 21:52:08 10° 283° (WNW) 1,491 -0.3 -29.7°
Enters shadow 21:52:33 13° 285° (WNW) 1,328 -0.5 -29.7°
